www.pogodaiklimat.ru

Погода и климат >> Архив погоды >> Индия >> Гоа >> Мормугао


ПОГОДА в Мормугао

  • Прогноз погоды в Мормугао
  • Монитор погоды в Мормугао

АРХИВ ПОГОДЫ в Мормугао

Время (UTC), дата Ветер
(напр.,м/с)
 
Видим.   Явления Облачность Т
(С)
Тd
(С)
f
(%)
Тe
(С)
Тes
(С)
Комфортность P
(гПа)
Po
(гПа)
Тmin
(С)
Tmax
(С)
R
(мм)
R24
(мм)
S
(см)
03 15.08 ЮЗ 3 2000 м дождь 10/6 300 м
[Frnb Ac As]
+25.6 +24.7 95 +36 +37 очень
душно
1010.3 1003.2 +22.7 +29.0 91
09 15.08 З 2 2000 м слаб. дождь 10/6 300 м
[Frnb Ac As]
+26.4 +25.3 94 +38 +40 очень
душно
1008.9 1001.8 20
12 15.08 ЮЗ 3 2000 м {дождь} 10/6 300 м
[Frnb Ac As]
+27.0 +25.6 92 +40 +40 очень
душно
1007.6 1000.5 +27.0 21
03 16.08 З 2 4000 м мгла 10/5 300 м
[Frnb Ac As Ci sp]
+27.0 +25.6 92 +40 +41 очень
душно
1009.8 1002.7 +23.8 +27.0 24
06 16.08 З 1 4000 м мгла {дождь} 8/4 300 м
[Frnb Ac trans Ci sp]
+29.0 +26.2 85 +44 +54 опасность
перегрева
1009.7 1002.6 1
09 16.08 ЮЗ 2 4000 м мгла 8/4 300 м
[Frnb Ac trans Ci sp]
+29.4 +25.4 79 +43 +50 опасность
перегрева
1008.3 1001.3
12 16.08 ЮЗ 2 4000 м {дождь} 8/4 300 м
[Frnb Ac trans Ci sp]
+28.0 +24.3 80 +39 +40 очень
душно
1007.2 1000.1 +29.5 2
03 17.08 ЮЗ 2 2000 м слаб. дождь 10/6 300 м
[Frnb Ac As]
+26.8 +25.7 94 +40 +40 очень
душно
1008.7 1001.6 +22.7 14
06 17.08 З 2 4000 м {дождь} 8/4 300 м
[Frnb Ac trans Ci sp]
+29.0 +25.6 82 +43 +52 опасность
перегрева
1009.0 1001.9 0.6
09 17.08 З 1 4000 м мгла 8/4 300 м
[Frnb Ac trans Ci sp]
+30.0 +25.2 76 +44 +52 опасность
перегрева
1007.9 1000.9
12 17.08 З 1 4000 м мгла 8/4 300 м
[Frnb Ac trans Ci sp]
+30.0 +25.2 76 +44 +45 опасность
перегрева
1006.9 999.9 +30.0
03 18.08 ЮЗ 2 4000 м 8/3 300 м
[Frnb Ac trans Ci sp]
+27.2 +25.5 90 +40 +43 очень
душно
1009.7 1002.6 +24.6 3
06 18.08 ЮЗ 1 4000 м 8/4 300 м
[Frnb Ac As Ci sp]
+28.2 +25.1 83 +41 +50 опасность
перегрева
1010.2 1003.1
09 18.08 штиль 0 2000 м слаб. дождь {морось} 10/3 300 м
[Frnb Ac As]
+27.0 +25.6 92 +40 +45 очень
душно
1008.9 1001.8 0.4
03 19.08 штиль 0 4000 м {дождь} 9/4 300 м
[Frnb Ac trans Ci sp]
+27.6 +26.2 92 +42 +44 опасность
перегрева
1009.9 1002.8 +24.0 +28.6 3
06 19.08 ЮЗ 1 4000 м {дождь} 8/4 300 м
[Frnb Ac trans Ci sp]
+30.0 +26.4 81 +46 +55 опасность
перегрева
1011.0 1004.0
09 19.08 штиль 0 4000 м {дождь} 8/4 300 м
[Frnb Ac trans Ci sp]
+30.6 +26.7 80 +48 +57 опасность
перегрева
1009.6 1002.6 0.6
12 19.08 ЮЗ 1 4000 м {дождь} 8/4 300 м
[Frnb Ac trans Ci sp]
+28.6 +25.2 82 +42 +43 опасность
перегрева
1008.3 1001.2 +30.6 0.6
03 20.08 В 2 4000 м {туман} 8/3 300 м
[Frnb Ac trans Ci sp]
+26.6 +25.2 92 +38 +41 очень
душно
1010.9 1003.8 +24.0 0.6
06 20.08 З 1 4000 м {туман} 8/3 300 м
[Frnb Ac trans Ci sp]
+30.0 +26.4 81 +46 +57 опасность
перегрева
1011.0 1004.0
09 20.08 З 2 4000 м {морось} 8/3 300 м
[Frnb Ac trans Ci sp]
+30.4 +26.5 80 +47 +55 опасность
перегрева
1008.9 1001.9 0.2
12 20.08 З 1 4000 м {морось} 6/1 300 м
[Frnb Ac trans Ci sp]
+29.4 +25.4 79 +43 +45 опасность
перегрева
1007.4 1000.4 +31.0 0.2
03 21.08 штиль 0 4000 м в посл. час дождь 8/5 600 м
[Sc diur, vesp Ci sp]
+27.0 +25.6 92 +40 +43 очень
душно
1010.1 1003.0 +24.0 4
06 21.08 З 1 4000 м 8/4 300 м
[Frnb Ac trans Ci sp]
+30.0 +25.8 78 +45 +54 опасность
перегрева
1010.4 1003.4
09 21.08 З 1 4000 м 8/5 300 м
[Frnb Ci sp]
+29.0 +24.7 78 +41 +50 опасность
перегрева
1008.7 1001.7
12 21.08 З 2 4000 м 8/4 600 м
[Sc diur, vesp Ac trans Ci sp]
+28.0 +23.9 78 +39 +40 очень
душно
1007.5 1000.4 +30.6

 

Местоположение метеостанции Мормугао (Гоа, Индия): широта 15.42 долгота 73.78 высота над уровнем моря 62 м.

В архиве по умолчанию представлена погода в Мормугао за последнюю неделю. Архивные данные за месяц целиком и за предыдущие месяцы, начиная с января 2011 года, Вы можете получить, выбрав интересующий диапазон дат из раскрывающегося списка и нажав кнопку "Ввод!".


*Определитесь, кто Вы:
робот инопланетянин человек

Внимание! Время в таблицах - всемирное. Для получения местного времени необходимо прибавить поправку, которая равна 5.5 ч.

Смотрите также архив погоды в соседних городах и на ближайших метеорологических станциях:

Погода в Панаджи (Гоа, Индия) (8 км)
Погода в Венгерле (Махараштра, Индия) (53 км)
Погода в Карваре (Карнатака, Индия) (80 км)
Погода в Белгауме (Карнатака, Индия) (93 км)
Погода в Белгаум аэропорту (Карнатака, Индия) (102 км)
Погода в Дхарваде (Карнатака, Индия) (129 км)
Погода в Хоннаваре (Карнатака, Индия) (146 км)
Погода в Колхапуре (Махараштра, Индия) (150 км)
Погода в Ширали (Карнатака, Индия) (170 км)
Погода в Ратнагири (Махараштра, Индия) (180 км)

Пояснения к столбцам:

Ветер - указаны скорость ветра в м/с - средняя за 10 мин, порывы в срок и между сроками (в фигурных скобках) и направление, откуда дует ветер: С - северный, СВ - северо-восточный, В - восточный, ЮВ - юго-восточный, Ю - южный, ЮЗ - юго-западный, З - западный, СЗ - северо-западный.
Видимость - горизонтальная дальность видимости в метрах или километрах. При видимости от 1 до 10 км при отсутствии осадков обычно наблюдается дымка, при ухудшении видимости до 1 км и менее - туман. В сухую погоду видимость может ухудшаться дымом, пылью или мглою.
Явления - указаны атмосферные явления, наблюдавшиеся в срок или в последний час перед сроком; фигурными скобками обозначены явления, наблюдавшиеся между сроками (за 1-3 часа до срока); квадратными скобками обозначены град или гололедные отложения с указанием их диаметра в мм.
Облачность - указаны через наклонную черту общая и нижняя облачность в баллах и высота нижней границы облаков в метрах; квадратными скобками обозначены формы облаков: Ci - перистые, Cs - перисто-слоистые, Cc - перисто-кучевые, Ac - высококучевые, As - высокослоистые, Sc - слоисто-кучевые, Ns - слоисто-дождевые, Cu - кучевые, Cb - кучево-дождевые. Подробнее классификацию облаков см. в Атласе облаков (PDF).
T - Температура воздуха - температура, измеренная на высоте 2 м над землей.
Td - Температура точки росы - температура, при понижении до которой содержащийся в воздухе водяной пар достигнет насыщения.
f - Относительная влажность воздуха - влажноcть воздуха, измеренная на высоте 2 м над землей.
Te - Эффективная температура - температура, которую ощущает одетый по сезону человек в тени. Характеристика душности погоды. При расчете учитывается влияние влажности воздуха и скорости ветра на теплоощущения человека.
Tes - Эффективная температура на солнце - температура, которую ощущает человек, с поправкой на солнечный нагрев. Характеристика знойности погоды. Зависит от высоты солнца над горизонтом, облачности и скорости ветра. Ночью, в пасмурную погоду, а также при ветре 12 м/с и более поправка равна нулю.
P - Атмосферное давление - приведенное к уровню моря атмосферное давление.
Po - Атмосферное давление - измеренное на уровне метеостанции атмосферное давление.
Tmin - Минимальная температура - минимум температуры воздуха на высоте 2 м над землей.
Tmax - Максимальная температура - максимум температуры воздуха на высоте 2 м над землей.
R - Количество осадков - Количество выпавших осадков за период времени, мм. При наведении курсора мыши на число - период времени, за который выпало указанное количество осадков.
R24 - Количество осадков - Количество выпавших осадков за 24 часа, мм.
S - Снежный покров - Высота снежного покрова, см. При наведении курсора мыши на число - состояние снежного покрова и степень покрытия местности в баллах.